Lafayette, LA

4:52 AM CDT on October 24, 2017 (GMT -0500)
Lafayette Regional

Weather History for KLFT - January, 2014

Change the Weather History Date:

Sunday, January 5, 2014

  Actual Average Record
Temperature  
Mean Temperature 52 °F 52 °F  
Max Temperature 71 °F 62 °F 79 °F (1921)
Min Temperature 32 °F 43 °F 23 °F (1969)
Degree Days  
Heating Degree Days 13 13  
Month to date heating degree days 92 65  
Since 1 July heating degree days 808 619  
Growing Degree Days 3 (Base 50)    
Moisture  
Dew Point 49 °F    
Average Humidity 77    
Maximum Humidity 89    
Minimum Humidity 64    
Precipitation  
Precipitation 0.18 in 0.19 in 2.59 in (1998)
Month to date precipitation 0.40 0.89  
Year to date precipitation 0.40 0.89  
Snow  
Snow 0.00 in 0.00 in 0.00 in ()
Month to date snowfall 0.0 0.0  
Since 1 July snowfall 0.0 0.0  
Snow Depth 0.00 in    
Sea Level Pressure  
Sea Level Pressure 29.97 in    
Wind  
Wind Speed 12 mph (WNW)    
Max Wind Speed 28 mph    
Max Gust Speed 37 mph    
Visibility 9 miles    
Events Rain    
T = Trace of Precipitation, MM = Missing Value Source: NWS Daily Summary

Daily Weather History Graph

Daily Weather History Graph

Search for Another Location

Airport or City:

Trip Planner

Search our weather history database for the weather conditions in past years. The results will help you decide how hot, cold, wet, or windy it might be!

Date:

Astronomy

Jan. 05, 2014 Rise Set
Actual Time 7:05 AM CST 5:21 PM CST
Civil Twilight 6:38 AM CST 5:48 PM CST
Nautical Twilight 6:09 AM CST 6:17 PM CST
Astronomical Twilight 5:39 AM CST 6:47 PM CST
Moon 10:08 AM CST (1/5) 10:25 PM CST (1/5)
Length of Visible Light 11h 09m
Length of Day
10h 16m
Waxing Crescent, 25% of the Moon is Illuminated
Jan 5
Waxing Crescent
Jan 7
First Quarter
Jan 15
Full
Jan 23
Last Quarter
Jan 30
New

Hourly Weather History & Observations

Time (CST) Temp. Windchill Dew Point Humidity Pressure Visibility Wind Dir Wind Speed Gust Speed Precip Events Conditions
12:53 AM 52.0 °F - 46.9 °F 83% 29.98 in 10.0 mi Calm Calm - N/A   Mostly Cloudy
1:53 AM 53.1 °F - 48.9 °F 86% 29.97 in 10.0 mi Calm Calm - N/A   Overcast
2:53 AM 54.0 °F - 48.9 °F 83% 29.96 in 10.0 mi SE 3.5 mph - N/A   Overcast
3:53 AM 54.0 °F - 48.9 °F 83% 29.95 in 10.0 mi Calm Calm - N/A   Overcast
4:53 AM 53.1 °F - 48.9 °F 86% 29.94 in 10.0 mi Calm Calm - N/A   Overcast
5:53 AM 54.0 °F - 50.0 °F 86% 29.92 in 10.0 mi SSE 4.6 mph - N/A   Mostly Cloudy
6:53 AM 55.9 °F - 51.1 °F 84% 29.92 in 10.0 mi SSE 4.6 mph - N/A   Overcast
7:53 AM 57.9 °F - 52.0 °F 81% 29.94 in 10.0 mi South 5.8 mph - N/A   Overcast
8:53 AM 61.0 °F - 54.0 °F 78% 29.94 in 10.0 mi South 6.9 mph - N/A   Overcast
9:53 AM 64.9 °F - 55.0 °F 70% 29.94 in 10.0 mi South 10.4 mph 19.6 mph N/A   Overcast
10:53 AM 66.0 °F - 55.9 °F 70% 29.94 in 10.0 mi South 13.8 mph - N/A   Overcast
11:53 AM 68.0 °F - 57.9 °F 70% 29.89 in 10.0 mi South 10.4 mph 20.7 mph N/A   Mostly Cloudy
12:53 PM 69.1 °F - 60.1 °F 73% 29.86 in 10.0 mi South 10.4 mph 19.6 mph N/A   Overcast
1:53 PM 71.1 °F - 61.0 °F 70% 29.84 in 10.0 mi SW 16.1 mph - N/A   Overcast
2:00 PM 68.0 °F - 62.6 °F 83% 29.87 in 1.2 mi West 21.9 mph 28.8 mph 0.11 in Rain Heavy Rain
2:05 PM 64.4 °F - 62.6 °F 94% 29.87 in 1.0 mi West 17.3 mph 28.8 mph 0.14 in Rain Heavy Rain
2:11 PM 64.4 °F - 62.6 °F 94% 29.87 in 2.5 mi West 15.0 mph 24.2 mph 0.15 in Rain Rain
2:15 PM 64.4 °F - 62.6 °F 94% 29.87 in 6.0 mi West 13.8 mph - 0.15 in Rain Light Rain
2:23 PM 64.4 °F - 62.6 °F 94% 29.87 in 6.0 mi West 11.5 mph - 0.16 in Rain Light Rain
2:38 PM 62.6 °F - 60.8 °F 94% 29.89 in 4.0 mi NW 25.3 mph 31.1 mph 0.18 in Rain Rain
2:45 PM 57.2 °F - 55.4 °F 94% 29.90 in 8.0 mi NW 24.2 mph 36.8 mph 0.18 in Rain Light Rain
2:53 PM 57.0 °F - 54.0 °F 89% 29.91 in 10.0 mi NW 20.7 mph 31.1 mph 0.18 in   Overcast
3:01 PM 55.4 °F - 53.6 °F 94% 29.91 in 8.0 mi NW 18.4 mph 28.8 mph N/A   Overcast
3:13 PM 55.4 °F - 53.6 °F 94% 29.92 in 10.0 mi NW 16.1 mph 24.2 mph N/A   Overcast
3:40 PM 55.4 °F - 51.8 °F 88% 29.93 in 10.0 mi NW 16.1 mph 21.9 mph 0.00 in   Overcast
3:53 PM 54.0 °F - 48.9 °F 83% 29.95 in 10.0 mi NW 21.9 mph 27.6 mph 0.00 in   Overcast
4:30 PM 51.8 °F - 46.4 °F 82% 29.98 in 10.0 mi NNW 20.7 mph - 0.00 in   Overcast
4:42 PM 48.2 °F - 41.0 °F 76% 29.99 in 10.0 mi NW 18.4 mph 25.3 mph 0.00 in   Overcast
4:53 PM 48.0 °F - 39.9 °F 74% 30.00 in 10.0 mi NNW 17.3 mph 26.5 mph 0.00 in   Overcast
5:53 PM 46.9 °F - 41.0 °F 80% 30.04 in 10.0 mi North 15.0 mph 20.7 mph N/A   Scattered Clouds
6:53 PM 46.0 °F 40.6 °F 39.0 °F 76% 30.08 in 10.0 mi NNW 11.5 mph - N/A   Partly Cloudy
7:53 PM 44.1 °F 35.9 °F 34.0 °F 68% 30.12 in 10.0 mi NNW 19.6 mph 27.6 mph N/A   Clear
8:53 PM 39.9 °F 30.2 °F 28.0 °F 63% 30.16 in 10.0 mi NNW 20.7 mph 28.8 mph N/A   Clear
9:53 PM 37.0 °F 27.4 °F 26.1 °F 65% 30.20 in 10.0 mi North 17.3 mph 26.5 mph N/A   Clear
10:53 PM 35.1 °F 23.8 °F 24.1 °F 64% 30.23 in 10.0 mi North 20.7 mph 29.9 mph N/A   Partly Cloudy
11:08 PM 35.6 °F 23.7 °F 24.8 °F 65% 30.24 in 10.0 mi NNW 24.2 mph 31.1 mph N/A   Mostly Cloudy
11:53 PM 33.1 °F 20.3 °F 23.0 °F 66% 30.26 in 10.0 mi North 24.2 mph 31.1 mph N/A   Overcast